Regional Weather Roundup
Issued by NWS

Home | Current Version | Previous Version | Graphics & Text | Print | Product List | Glossary On
Versions: 1 2 3 4 5 6 7 8 9 10 11 12 13 14 15 16 17 18 19 20 21 22 23 24 25 26 27 28 29 30 31 32 33 34 35 36 37 38 39 40 41 42 43 44 45 46 47 48 49
000
ASUS43 KDMX 171707
RWRIA

WEATHER ROUNDUP FOR IOWA
NATIONAL WEATHER SERVICE DES MOINES IA
1100 AM CST WED DEC 17 2014

NOTE: "FAIR" INDICATES FEW OR NO CLOUDS BELOW 12,000 FEET WITH NO
SIGNIFICANT WEATHER AND/OR OBSTRUCTIONS TO VISIBILITY.

* - THESE STATIONS ARE NOT NWS STATIONS...THUS NOT UNDER NWS
QUALITY CONTROL.  THEY ALSO DO NOT REPORT WEATHER SUCH
AS PRECIPITATION OR FOG.

IAZ001>003-012>014-020>022-031>034-043>046-171800-
   NORTHWEST IOWA

CITY           SKY/WX    TMP DP  RH WIND       PRES   REMARKS
CARROLL *      SUNNY     19  12  73 NW6       30.34F WCI  11
CHEROKEE *     SUNNY     18  12  79 N3        30.33F
DENISON *      SUNNY     19  12  73 CALM      30.32S
LE MARS *      SUNNY     18  12  79 N5        30.36S WCI  11
ORANGE CITY *  SUNNY     18  10  73 CALM      30.32F
SHELDON *      SUNNY     14  10  85 N6        30.32F WCI   5
SIOUX CITY     SUNNY     19  13  77 CALM      30.37R
SPENCER        SUNNY     18  11  74 NW3       30.33S
STORM LAKE *   SUNNY     18  12  79 NW6       30.32F WCI   9
$$

IAZ055>058-069>071-079>083-090>094-171800-
   SOUTHWEST IOWA

CITY           SKY/WX    TMP DP  RH WIND       PRES   REMARKS
ATLANTIC *     MOSUNNY   21  14  73 CALM      30.34F
AUDUBON *      SUNNY     21  12  68 CALM      30.33S
CLARINDA *     PTSUNNY   23  16  74 VRB3      30.36F
COUNCIL BLFS * CLOUDY    21  16  79 CALM      30.33R
CRESTON *      SUNNY     21  14  73 N6        30.32F WCI  14
HARLAN  *      SUNNY     19  14  79 CALM      30.37F
LAMONI         PTSUNNY   22  15  75 CALM      30.33F
RED OAK *      CLOUDY    23  16  74 NE7       30.35F WCI  15
SHENANDOAH *   CLOUDY    23  16  74 VRB3      30.36F
$$

IAZ047>049-059>061-072>074-084-171800-
   CENTRAL IOWA

CITY           SKY/WX    TMP DP  RH WIND       PRES   REMARKS
AMES           SUNNY     19  12  74 NW8       30.34F WCI   9
ANKENY *       SUNNY     21  12  68 N8        30.35F WCI  12
CHARITON *     SUNNY     21  12  68 NW7       30.33F WCI  13
DES MOINES     MOSUNNY   22  11  62 N6        30.35F WCI  14
GRINNELL*      SUNNY     21  18  86 NW7       30.33F WCI  13
KNOXVILLE *    SUNNY     21  12  68 VRB5      30.33F WCI  15
MARSHALLTOWN   SUNNY     20  13  74 NW8       30.32F WCI  10
PELLA *        MOSUNNY   23  14  68 NW7       30.36F WCI  15
PERRY *          N/A     21  16  79 NW5       30.35F WCI  15
$$

IAZ004>006-015-016-023>025-035-036-171800-
   NORTH CENTRAL IOWA

CITY           SKY/WX    TMP DP  RH WIND       PRES   REMARKS
ALGONA *       SUNNY     16  10  79 N7        30.33F WCI   6
CLARION *      MOSUNNY   18  14  86 NW9       30.33F WCI   6
ESTHERVILLE    MOSUNNY   15  11  83 NW7       30.33R WCI   5
FORT DODGE *   SUNNY     18  10  73 N7        30.33F WCI   8
MASON CITY     SUNNY     17  10  74 NW13      30.32F WCI   4
FOREST CITY *  SUNNY     19  10  68 NW9       30.31F WCI   9
IOWA FALLS *     N/A     19  14  79 NW10      30.33F WCI   8
$$

IAZ007>011-017>019-026>030-037>042-050>054-066-171800-
   NORTHEAST IOWA

CITY           SKY/WX    TMP DP  RH WIND       PRES   REMARKS
CEDAR RAPIDS   PTSUNNY   19  14  81 W12       30.31F WCI   7
CHARLES CITY * CLOUDY    18  12  79 NW10      30.31F WCI   6
CLINTON *      CLOUDY    21  16  79 NW12G17   30.33F WCI   9
DECORAH *      CLOUDY    18  10  73 NW8G16    30.27F WCI   7
DUBUQUE        CLOUDY    20  16  84 NW9       30.26F WCI   9
MONTICELLO *   CLOUDY    21  16  79 W10       30.30F WCI  10
OELWEIN *      PTSUNNY   19  12  73 N13       30.30F WCI   7
WATERLOO         N/A     19  11  70 NW9       30.32F WCI   8
$$

IAZ064-065-067-068-078-171800-
   EAST CENTRAL IOWA

CITY           SKY/WX    TMP DP  RH WIND       PRES   REMARKS
DAVENPORT      CLOUDY    22  15  75 W13       30.31F WCI  10
IOWA CITY      MOSUNNY   23  14  68 W9        30.35F WCI  13
MT. PLEASANT * PTSUNNY   23  18  80 NW5       30.34F WCI  17
MUSCATINE *    PTSUNNY   25  18  74 W10       30.35F WCI  15
QUAD CITIES    PTSUNNY   24  16  71 W10       30.32F WCI  14
$$

IAZ062-063-075>077-085>089-095>099-171800-
   SOUTHEAST IOWA

CITY           SKY/WX    TMP DP  RH WIND       PRES   REMARKS
BURLINGTON     CLOUDY    22  17  81 NW9       30.33F WCI  12
FAIRFIELD *    CLOUDY    23  16  74 NW8       30.34F WCI  14
FORT MADISON * CLOUDY    25  19  80 NW7       30.34F WCI  17
KEOKUK *       CLOUDY    23  18  80 N7        30.34F WCI  15
OSKALOOSA *      N/A     21  16  79 W9        30.34F WCI  11
CENTERVILLE *  SUNNY     23  18  80 NW5       30.34F WCI  17
OTTUMWA        MOSUNNY   22  15  75 NW8       30.34F WCI  12
WASHINGTON *   SUNNY     23  19  86 W13       30.34S WCI  11
$$

ABBREVIATIONS USED IN REMARKS
   TC - TEMPERATURES IN CELSIUS
  WCI - WIND CHILL INDEX
   HX - HEAT INDEX
  VSB - VISIBILITY
$$



USA.gov is the U.S. government's official web portal to all federal, state and local government web resources and services.